EW2725 Weather Reports


Display with metric or nautical units.
time (UTC)temp
F
wind
direction
speed
MPH
gust
MPH
rain 1hr
in
rain 24hr
in
rain mn
in
humidity
%
barometer
mb
20260906173121 65 16 8.0 0.0 0.00 0.00 0.02 71 1100.1
20260906171612 65 42 9.0 0.0 0.00 0.00 0.02 70 1100.1
20260906170144 65 18 10.0 0.0 0.00 0.00 0.02 70 1100.1
20260906164612 65 5 10.0 0.0 0.00 0.00 0.02 69 1100.1
20260906161637 65 13 10.0 0.0 0.00 0.00 0.02 69 1100.1
20260906160025 65 19 9.0 0.0 0.00 0.00 0.02 69 1100.1
20260906154632 65 28 10.0 0.0 0.00 0.00 0.02 70 1100.1
20260906141601 64 26 9.0 0.0 0.00 0.00 0.02 71 1100.1
20260906140122 64 44 8.0 0.0 0.00 0.00 0.02 72 1100.1
20260906134652 63 23 11.0 0.0 0.00 0.00 0.02 75 1100.1
20260906133014 63 16 8.0 0.0 0.00 0.00 0.02 78 1100.1
20260906123001 60 313 2.0 0.0 0.00 0.00 0.02 85 1100.1
20260906111649 60 9 2.0 0.0 0.00 0.00 0.02 84 1100.1
20260906110019 60 16 4.0 0.0 0.00 0.00 0.01 81 1100.1
20260906064507 60 302 2.0 0.0 0.00 0.00 0.00 87 1100.1
20260906061624 60 302 1.0 0.0 0.00 0.00 0.00 88 1100.1
20260906060026 60 302 0.0 0.0 0.00 0.00 0.00 88 1100.1
20260906053129 60 302 0.0 0.0 0.00 0.00 0.00 87 1100.1
20260906051630 60 302 1.0 0.0 0.00 0.00 0.00 87 1100.1
20260906050028 59 302 0.0 0.0 0.00 0.00 0.00 87 1100.1
20260906043016 60 302 1.0 0.0 0.00 0.00 0.00 87 1100.1
20260906041651 59 302 0.0 0.0 0.00 0.00 0.00 86 1100.1
20260906031658 61 302 0.0 0.0 0.00 0.00 0.00 84 1100.1
20260906030146 61 302 1.0 0.0 0.00 0.00 0.00 84 1100.1
20260906023001 61 302 0.0 0.0 0.00 0.00 0.00 82 1100.1
20260906021647 62 302 0.0 0.0 0.00 0.00 0.00 81 1100.1
20260906020157 62 302 1.0 0.0 0.00 0.00 0.00 80 1100.1
20260906013133 64 302 4.0 0.0 0.00 0.00 0.00 80 1100.1
20260906011659 64 302 3.0 0.0 0.00 0.00 0.00 81 1100.1
20260906010147 63 302 4.0 0.0 0.00 0.00 0.00 83 1100.1
20260906004508 62 302 1.0 0.0 0.00 0.00 0.00 84 1100.1
20260906001517 61 5 0.0 0.0 0.00 0.00 0.00 84 1100.1
20260905233111 63 5 0.0 0.0 0.00 0.00 0.00 80 1100.1
20260905230055 64 11 5.0 0.0 0.00 0.00 0.00 79 1100.1
20260905224644 64 355 4.0 0.0 0.00 0.00 0.00 79 1100.1
20260905211515 65 39 7.0 0.0 0.00 0.00 0.00 77 1100.1
20260905210140 66 53 8.0 0.0 0.00 0.00 0.00 77 1100.1
20260905203019 66 22 10.0 0.0 0.00 0.00 0.00 78 1100.1
20260905201635 66 52 8.0 0.0 0.00 0.00 0.00 78 1100.1
20260905193020 66 44 7.0 0.0 0.00 0.00 0.00 81 1100.1
20260905191508 66 348 6.0 0.0 0.00 0.00 0.00 82 1100.1
20260905190111 67 31 9.0 0.0 0.00 0.00 0.00 82 1100.1
20260905184655 67 34 7.0 0.0 0.00 0.00 0.00 80 1100.1